Theta_e
308 308 307 305 305 306 305 306 303 304 304 308 311 312 313 318 318 319 319 319 318 317 317 316 316 315 314 313 313 314 312 310 311 312 313 313 312 313 313 313 313 311 308 309
305 308 307 306 307 306 307 307 307 306 305 313 316 315 313 317 318 317 318 318 318 317 317 316 315 314 314 313 313 314 311 310 310 312 313 312 312 312 313 313 312 311 308 309
301 306 305 301 305 306 308 309 308 304 309 312 312 311 314 317 318 317 318 318 318 317 317 316 316 315 313 313 313 313 311 311 311 312 310 310 311 310 311 312 314 311 309 309
303 304 295 307 312 311 309 310 310 310 310 310 313 316 318 320 319 318 319 319 318 318 317 317 316 315 315 314 312 311 309 310 311 310 308 309 310 309 311 313 312 310 309 310
302 301 305 307 309 308 307 307 311 309 310 312 315 316 316 320 321 321 321 320 320 319 318 317 315 315 313 312 312 311 309 310 308 308 308 307 307 309 311 312 311 310 310 309
305 300 296 307 311 314 312 302 311 312 312 313 314 306 312 320 321 322 322 321 319 318 317 316 315 314 313 311 310 309 310 307 307 307 307 307 309 310 312 311 310 309 308 310
301 301 304 312 314 314 300 303 314 313 314 315 312 317 320 321 321 322 320 319 318 317 315 315 314 313 311 308 308 310 309 309 309 309 309 310 311 313 312 311 311 311 310 312
302 298 298 314 312 306 315 318 316 315 316 317 320 319 318 318 318 318 317 316 316 315 315 313 313 311 308 308 310 312 309 309 310 311 311 310 311 313 313 313 312 312 312 311
309 309 313 318 317 323 322 317 317 317 318 321 318 317 317 317 317 316 315 314 315 314 312 311 310 309 307 309 311 310 309 310 311 311 311 312 312 312 310 314 310 309 307 307
309 316 316 317 320 321 319 318 319 320 320 321 318 317 316 316 316 315 314 314 314 313 310 306 307 309 309 310 312 310 310 311 311 310 311 312 311 311 309 308 308 307 306 306
310 315 316 318 320 319 318 320 320 321 321 319 319 317 316 316 315 314 314 314 313 312 309 306 309 309 310 312 311 310 311 311 311 310 311 310 312 311 309 313 306 305 305 305
309 308 313 317 321 320 319 319 320 319 318 319 318 317 317 316 315 314 313 312 312 312 309 307 308 309 312 312 311 311 309 309 309 308 309 309 309 310 300 299 298 296 295 299
311 317 315 322 323 322 320 320 320 319 319 317 318 318 317 316 315 310 313 312 311 310 308 308 310 311 310 312 312 311 310 311 310 306 308 309 309 309 307 306 297 295 294 293
316 317 317 318 319 321 321 321 318 320 319 319 319 318 317 315 312 311 311 311 312 311 308 310 310 309 311 312 311 311 312 302 308 309 309 309 309 308 308 307 307 308 299 297
317 319 320 321 322 321 322 320 318 317 318 318 318 317 315 312 310 311 312 311 312 311 311 310 309 309 311 312 311 311 310 310 311 310 310 308 308 309 308 308 308 307 308 301
316 318 319 319 319 320 320 319 318 317 318 317 316 315 314 313 312 312 311 311 310 309 310 309 309 311 312 312 311 311 311 303 303 309 309 310 309 308 308 308 308 307 306 306
314 314 316 317 318 319 318 319 319 318 318 316 316 315 313 312 311 311 311 312 311 311 311 311 310 311 312 312 311 310 310 311 305 308 309 309 308 308 308 308 307 306 306 302
316 318 319 319 318 318 318 319 320 319 318 318 316 315 313 311 310 310 311 312 311 310 311 311 311 311 312 311 312 310 310 310 310 309 309 309 308 309 308 307 304 303 304 303
313 314 318 318 318 318 319 319 320 320 319 317 315 314 313 312 312 311 312 310 309 308 309 312 303 308 312 310 308 311 310 310 309 309 310 304 308 308 306 303 302 303 303 303
311 313 315 317 319 319 319 321 321 319 318 317 316 314 313 312 312 311 311 310 310 310 313 312 311 311 312 310 301 309 309 310 309 309 308 308 308 305 303 298 301 301 302 302
311 311 312 314 318 320 320 321 319 317 317 317 315 314 313 312 312 311 310 308 312 311 312 305 311 311 311 307 306 309 309 309 309 308 308 307 304 302 302 302 301 301 301 301
310 310 311 314 318 319 320 321 319 318 317 317 316 314 312 311 311 311 312 310 311 298 310 311 311 297 307 297 310 310 309 311 309 308 305 303 302 301 301 300 300 300 299 300
315 312 310 314 318 319 320 319 318 317 317 316 314 313 312 311 311 309 306 312 311 304 310 310 293 289 293 309 310 310 310 309 307 304 302 302 301 301 300 299 299 299 298 299
316 316 313 316 320 318 317 318 319 318 317 315 314 314 313 310 311 311 312 301 295 300 306 304 298 290 288 310 309 309 308 306 304 302 301 294 300 300 300 299 298 299 299 298
314 317 316 316 317 317 319 319 318 317 315 314 314 315 314 313 311 311 310 310 295 304 306 287 290 289 306 309 309 307 304 303 302 301 301 300 299 300 299 298 298 299 299 300
315 315 316 317 317 318 318 318 315 315 314 313 313 314 313 313 312 311 310 305 310 302 308 307 308 308 309 308 306 304 302 301 301 300 299 300 300 299 299 300 300 300 300 300
315 306 317 316 317 318 319 317 315 313 313 314 313 314 313 313 310 308 303 308 309 307 308 309 308 305 308 306 304 302 301 300 294 300 300 300 301 301 301 301 300 300 299 297
Wind_Speed
21 12 16 11 16 17 16 15 14 11 11 11 12 8 7 11 11 14 15 16 15 14 12 11 10 8 6 6 6 6 6 4 2 0 0 3 5 5 4 4 5 6 6 6
20 21 13 18 37 10 15 14 13 9 12 9 10 2 6 6 12 14 14 16 15 14 13 12 11 9 7 7 7 6 5 5 1 3 2 3 3 5 5 4 4 5 5 5
18 19 12 19 15 12 11 10 7 10 9 6 3 3 5 7 10 12 14 15 15 13 12 11 9 8 7 7 7 7 6 6 4 2 4 3 4 4 4 4 4 4 4 5
15 13 18 12 8 6 8 8 5 7 7 2 2 4 6 7 9 10 12 14 13 12 12 10 9 8 7 7 7 8 6 5 3 2 4 3 3 3 3 3 3 3 2 3
10 12 11 11 6 6 8 13 7 4 5 6 6 7 6 5 7 9 11 12 12 12 12 10 9 8 8 8 8 8 8 5 2 2 1 2 3 2 2 2 2 2 1 3
9 12 18 10 14 7 1 9 11 8 7 10 9 9 10 10 10 11 11 11 12 13 12 10 8 8 8 9 8 8 7 5 5 4 3 4 2 2 1 4 3 5 3 2
10 10 10 7 10 10 11 4 8 4 7 9 6 6 13 12 12 12 12 13 13 12 10 9 8 8 8 8 8 7 6 6 5 5 3 2 2 2 3 4 4 4 5 6
14 14 13 18 17 14 8 9 9 7 8 10 12 13 13 13 14 14 14 14 12 10 9 8 8 8 9 9 8 8 7 6 6 5 5 2 3 5 5 5 8 10 9 10
17 15 14 18 11 13 10 9 8 9 10 13 13 13 13 13 13 12 13 11 10 9 9 8 8 9 10 8 9 8 7 7 5 4 5 4 5 6 8 9 9 8 7 7
4 8 24 18 14 13 11 10 10 11 11 13 12 13 14 13 12 11 11 10 9 9 10 9 9 10 8 10 10 8 8 6 5 5 4 4 7 7 6 7 7 7 8 9
4 12 15 15 13 13 12 12 12 12 13 11 14 14 14 12 11 11 10 9 9 9 10 10 11 9 9 12 8 8 7 5 4 6 7 6 8 5 5 5 4 7 8 9
3 14 24 14 16 15 14 15 15 15 14 13 13 13 13 11 10 10 10 9 9 9 11 11 12 12 11 9 10 8 6 6 5 4 4 5 4 6 10 10 9 12 14 10
5 9 14 12 17 18 16 16 16 15 14 14 13 12 12 11 10 9 10 10 10 10 11 12 13 11 10 10 8 6 6 5 3 3 7 5 5 6 7 5 15 14 16 10
9 6 11 11 13 14 16 17 15 15 14 13 13 12 12 11 11 10 10 10 10 11 12 13 11 11 10 9 8 6 6 2 6 7 5 6 5 7 7 7 7 8 7 10
13 10 4 9 14 15 17 17 17 16 15 14 13 13 12 13 11 10 10 11 11 12 12 11 11 10 9 8 7 6 6 6 6 6 6 5 7 9 7 7 8 8 7 6
9 8 7 11 15 17 18 18 17 16 15 15 14 13 13 12 11 11 11 12 13 11 12 11 9 9 8 7 6 6 6 4 4 7 8 8 5 6 7 8 8 8 8 10
7 8 9 12 15 17 19 17 15 15 15 15 14 14 13 13 12 12 12 12 11 11 10 9 8 7 7 6 6 6 5 6 8 7 9 5 5 7 8 8 9 9 7 7
4 2 10 11 14 15 15 15 15 16 15 15 15 14 13 13 12 13 13 12 11 10 9 8 7 7 6 7 6 6 7 4 6 9 5 4 7 7 8 9 10 9 8 4
6 5 3 5 10 13 12 12 15 15 15 15 15 14 12 12 12 13 13 13 11 10 9 8 10 2 5 4 3 7 5 5 6 5 3 1 3 8 9 8 8 7 8 8
8 8 7 7 7 10 13 13 15 15 15 15 14 13 12 11 12 13 13 12 9 7 11 9 8 8 9 9 4 9 6 4 4 4 6 7 8 7 7 4 6 8 7 8
13 10 10 9 8 10 13 15 16 16 16 15 14 13 12 12 12 12 12 9 9 7 9 12 9 8 7 7 8 10 5 2 2 4 7 8 6 6 6 6 7 7 7 7
10 11 12 10 10 11 13 15 16 16 16 15 13 13 13 12 12 11 11 7 7 9 8 8 8 9 8 2 9 2 4 3 5 7 6 5 6 5 7 7 7 7 7 7
4 7 10 11 12 13 15 15 16 17 16 14 14 13 12 10 9 10 8 9 9 8 8 4 9 9 4 6 4 4 7 7 7 6 5 5 5 6 6 6 6 7 7 6
1 4 7 12 13 13 16 16 16 15 15 14 13 13 11 9 9 7 9 6 15 10 4 5 8 6 6 8 7 7 6 5 6 6 6 5 6 6 6 6 6 6 6 5
2 2 8 12 12 11 14 16 16 15 15 14 14 12 11 7 9 9 9 9 14 10 9 5 5 4 8 5 8 9 8 8 7 6 6 6 6 6 7 7 7 6 6 6
2 5 7 11 11 11 13 13 12 12 12 12 11 10 8 8 11 10 6 11 12 6 9 8 8 8 7 9 9 8 8 7 7 7 7 7 7 7 6 6 6 7 8 9
4 3 8 9 10 11 12 13 13 13 12 11 11 10 10 12 11 9 9 10 10 8 9 8 7 8 9 9 9 8 8 8 7 7 7 6 6 7 7 7 8 8 8 7
Wind_Direction
245 218 277 209 228 192 217 221 242 270 291 326 326 352 354 160 172 161 179 167 160 171 163 157 154 147 138 133 148 150 148 167 127 92 172 20 359 340 330 326 22 12 10 32
239 244 239 200 208 207 223 234 262 275 286 322 59 2 268 163 173 169 182 168 164 171 159 162 157 158 151 152 161 169 154 170 90 251 293 8 346 339 332 341 20 11 17 28
242 240 239 248 245 234 236 238 251 276 323 8 231 257 193 175 174 181 177 167 165 170 160 161 162 151 160 168 160 170 172 166 186 284 298 306 305 336 358 342 11 8 3 8
232 246 238 226 255 256 244 250 268 272 267 335 83 115 144 163 180 175 167 161 163 162 156 160 152 158 153 164 174 159 207 149 197 267 281 255 319 357 338 2 357 8 352 2
221 217 210 147 183 209 230 256 267 253 214 153 128 151 131 150 158 156 153 157 157 153 153 155 157 154 166 165 173 163 195 154 154 163 184 89 66 42 357 340 336 282 340 345
229 216 235 226 192 174 183 249 245 182 192 158 171 224 117 144 133 131 141 141 145 144 149 154 156 158 175 167 172 179 165 149 152 146 138 113 91 70 2 301 87 320 337 336
223 245 236 146 145 157 208 219 105 157 159 165 194 54 121 126 126 131 134 139 140 147 157 154 155 164 177 172 169 203 141 167 165 168 179 177 233 263 301 302 337 297 290 271
222 224 248 142 170 195 100 121 130 143 137 132 114 124 133 131 132 135 138 139 152 157 154 154 147 169 169 180 162 195 184 182 177 196 254 160 259 282 278 267 257 253 242 258
196 213 138 164 180 117 136 140 139 142 144 129 140 141 139 137 140 143 144 155 157 161 147 142 153 177 176 167 197 175 189 200 209 216 249 248 262 277 273 235 246 280 303 310
78 134 149 158 138 143 151 147 149 137 146 148 149 148 143 141 145 150 155 159 165 159 150 152 173 186 188 178 193 188 194 205 215 227 253 280 293 278 288 310 321 316 332 335
351 161 146 147 140 151 147 140 147 140 144 153 148 152 148 149 154 158 157 156 167 171 151 160 182 183 186 197 178 197 202 210 225 225 201 263 244 278 296 310 323 316 313 324
158 16 321 165 156 155 149 152 146 144 149 146 155 149 151 152 158 157 156 156 171 172 144 163 184 181 192 172 192 207 194 210 235 288 267 252 280 289 213 242 220 219 237 240
191 53 328 307 155 159 157 151 147 149 146 148 144 148 150 150 154 144 154 165 171 168 153 175 185 178 180 185 201 202 253 320 265 245 262 280 303 294 316 233 233 239 240 230
163 176 219 252 141 157 151 146 144 139 142 141 142 144 142 147 139 160 162 169 166 163 163 181 174 178 183 185 202 220 227 74 280 284 296 287 310 320 296 301 316 325 230 224
175 191 267 183 157 157 145 148 145 147 144 144 147 144 150 147 161 161 161 164 164 165 169 173 177 176 184 191 205 222 223 245 227 248 282 326 280 279 302 326 333 329 7 141
159 167 192 159 164 154 156 163 157 153 154 151 149 151 149 152 154 155 160 162 166 169 169 179 180 167 179 195 214 226 229 261 281 306 293 282 308 316 328 336 336 0 11 32
169 174 173 171 162 166 175 170 164 156 156 156 152 149 149 152 152 157 162 164 169 165 174 180 182 186 177 202 216 244 244 184 213 249 261 311 325 348 334 345 0 357 24 70
314 331 181 187 167 176 175 175 157 158 162 153 148 152 155 159 161 162 164 165 170 167 178 182 183 184 183 190 221 240 248 263 212 244 305 339 12 312 357 15 351 358 1 41
195 233 223 177 171 173 171 169 150 154 154 150 156 156 158 163 159 163 164 172 176 175 178 183 104 200 203 129 272 240 265 259 264 275 0 36 301 1 20 16 345 4 6 3
238 206 213 208 232 179 153 155 149 152 150 155 153 151 159 159 159 164 170 179 181 185 158 153 167 194 230 130 191 253 246 258 289 344 49 324 44 1 18 35 6 15 14 9
227 219 210 207 193 166 156 150 154 152 153 156 154 156 156 153 161 163 171 179 175 140 160 143 202 192 193 150 198 231 275 63 11 35 26 23 19 23 16 21 22 21 17 16
224 213 207 200 174 162 155 154 151 151 154 154 152 148 149 155 159 167 182 155 153 147 175 171 198 60 79 169 236 242 146 90 48 44 37 30 31 21 36 19 26 30 18 27
215 214 207 183 171 163 154 154 151 156 153 152 150 151 157 155 164 167 167 145 156 186 220 130 102 105 114 243 237 100 71 62 54 52 51 45 47 45 42 35 32 41 30 27
136 206 220 165 165 153 159 155 154 154 151 147 148 151 147 155 160 151 129 91 129 165 55 115 111 130 228 243 108 106 111 92 73 80 95 41 51 55 51 34 38 44 50 44
90 206 208 157 168 165 157 152 155 149 146 145 147 149 155 157 143 130 146 134 131 163 123 100 114 218 238 127 92 70 58 50 60 84 72 63 63 57 62 67 44 35 60 57
253 206 187 185 166 169 157 164 156 152 152 150 151 153 152 134 121 138 150 148 152 198 133 151 162 207 109 96 93 94 95 94 78 61 73 77 69 73 74 70 69 57 50 45
216 266 176 187 170 175 162 175 154 152 154 156 153 153 144 132 133 133 147 157 152 172 150 136 144 96 111 100 93 89 88 76 49 85 86 86 81 74 66 59 56 58 64 45